Wind_Speed
22 22 21 20 20 21 21 22 22 22 23 22 22 23 23 24 24 24 25 26 27 27 27 28 28 29 29 27 28 28 27 27 27 27 27 27 28 28 27 27 27 28 28
22 22 21 21 21 21 22 22 23 24 24 24 24 24 25 25 25 26 26 27 27 27 28 29 30 29 30 29 28 28 28 28 28 28 28 28 28 28 28 28 28 27 28
21 21 22 22 22 23 23 24 24 25 25 25 25 26 27 27 27 27 27 27 26 27 28 30 31 31 31 30 31 30 30 30 30 30 30 29 28 27 27 28 28 28 29
22 22 22 22 22 22 23 24 25 25 26 25 26 27 28 28 28 28 29 29 29 29 30 31 31 32 32 32 32 32 31 31 31 31 31 31 30 28 27 28 28 28 28
23 23 23 23 22 23 24 24 24 25 25 25 26 27 28 30 30 30 30 29 30 31 31 31 32 32 31 32 32 32 32 31 31 31 30 30 30 30 29 28 28 28 28
21 22 23 23 23 23 24 24 25 24 25 26 26 28 29 30 30 30 29 30 30 31 31 31 32 32 31 32 33 33 32 31 31 31 31 30 30 30 30 29 29 29 29
20 21 23 23 24 25 25 25 25 25 26 27 27 28 29 29 29 29 29 29 29 29 29 30 30 31 31 32 32 32 31 31 32 32 32 31 31 31 31 31 30 30 30
21 22 23 23 24 24 24 25 26 26 26 27 28 29 29 28 27 26 26 27 27 27 28 29 29 30 30 30 31 31 31 30 30 30 30 31 31 31 31 31 30 30 29
21 21 23 23 24 24 25 25 25 26 26 26 27 27 27 27 26 25 25 24 25 26 26 27 27 28 28 28 28 28 28 28 28 28 29 29 30 30 30 30 30 30 29
21 21 22 23 23 23 24 25 25 25 25 25 26 26 26 26 25 24 24 24 25 25 25 25 25 25 25 25 26 27 27 27 27 27 27 27 27 28 29 30 29 29 28
22 22 23 24 24 24 24 25 24 25 25 25 25 25 25 24 24 24 23 24 24 24 25 24 24 23 23 24 24 24 24 25 25 25 25 25 26 26 27 27 27 27 26
23 23 23 24 24 24 23 24 24 23 23 23 24 24 23 24 24 23 23 23 23 22 22 22 22 22 22 22 22 22 22 22 23 23 23 23 24 24 24 24 24 24 24
24 24 24 23 23 23 23 23 23 22 23 23 23 24 23 23 23 23 22 21 21 21 21 21 21 21 20 20 21 20 20 19 20 20 21 21 20 20 20 21 21 21 21
23 23 22 22 22 22 22 22 21 21 21 22 23 23 22 21 21 21 20 20 20 20 20 20 19 19 19 19 18 18 17 17 17 17 16 17 17 16 17 18 18 18 18
22 21 21 21 21 21 20 20 20 19 19 20 20 20 20 20 19 19 18 19 19 19 19 18 18 17 17 17 16 15 15 15 15 15 14 14 14 14 14 15 15 15 15
20 20 20 20 20 19 19 19 19 18 19 18 18 18 18 18 17 17 17 17 17 17 17 16 16 15 15 14 13 13 13 13 13 12 11 11 11 11 11 11 12 12 12
19 19 18 18 18 18 18 17 16 16 16 16 15 16 16 15 15 15 15 15 15 15 14 14 13 13 12 11 10 10 10 10 9 9 9 9 8 8 8 7 8 8 9
18 17 16 16 16 16 15 15 14 14 13 13 13 14 14 13 12 12 12 12 12 12 12 11 11 10 9 9 8 8 8 7 7 6 6 6 6 5 5 4 4 5 5
17 15 15 14 13 13 13 13 11 11 11 11 12 11 11 11 10 11 11 11 10 10 10 10 9 8 7 7 7 6 5 5 4 4 4 3 3 2 2 2 2 3 4
15 14 13 12 12 12 11 10 9 9 9 9 9 9 9 8 9 10 10 10 9 8 9 8 8 7 7 6 6 5 5 4 4 4 3 2 0 1 2 3 3 3 3
13 12 12 11 10 9 9 8 8 8 8 7 7 6 6 7 8 8 9 9 9 8 7 7 7 6 6 6 6 5 5 4 3 3 2 2 3 3 4 5 4 3 3
11 10 10 9 9 8 8 7 7 6 6 6 5 6 7 7 8 8 8 8 9 9 8 7 7 7 7 7 6 6 5 4 4 4 4 5 6 6 6 6 5 4 3
9 8 8 7 7 6 6 6 5 4 4 4 4 5 7 7 7 7 7 7 8 8 8 8 7 7 7 7 7 7 7 7 6 7 7 7 7 7 8 8 7 6 6
8 6 6 5 5 5 5 4 3 3 3 3 5 5 6 6 7 7 7 7 7 8 8 9 9 8 7 8 8 8 8 9 9 9 10 9 10 9 9 9 9 8 7
7 6 5 5 5 4 4 3 3 3 4 4 5 5 6 7 7 7 7 7 8 8 9 9 9 9 9 8 8 8 8 9 10 10 10 10 10 10 10 8 8 8 8
7 7 6 5 5 5 4 4 3 4 4 4 5 5 6 6 6 7 7 8 8 8 9 9 10 9 9 9 9 9 9 9 9 10 10 10 10 10 9 9 8 8 7
Wind_Direction
277 277 278 281 284 286 287 287 288 288 288 288 287 286 285 284 285 283 281 280 278 276 274 275 276 276 277 276 274 274 274 274 275 275 275 275 272 271 270 271 271 270 271
276 279 281 283 284 285 287 287 288 288 287 286 287 288 288 286 285 284 283 282 279 276 275 274 275 275 276 276 275 276 275 275 275 275 274 273 274 273 271 271 272 272 272
274 276 279 282 283 284 285 287 288 286 286 287 288 288 288 287 286 285 284 282 280 278 276 275 275 275 275 276 276 275 275 275 275 275 275 275 274 273 272 273 274 274 273
278 279 279 281 283 285 286 288 287 286 286 288 288 287 288 288 286 286 285 283 282 281 280 278 276 276 276 276 275 274 275 275 274 274 275 275 275 274 272 272 273 272 273
280 279 279 280 282 285 287 290 288 287 288 290 289 288 289 289 288 288 286 285 284 284 283 280 278 278 277 276 276 275 275 275 274 273 274 274 274 275 273 273 273 273 272
280 279 281 282 283 285 286 288 290 288 289 290 290 290 292 290 289 289 286 285 285 285 284 283 280 279 277 277 276 274 273 273 273 273 273 273 273 273 274 273 272 273 274
284 283 283 283 284 285 286 288 290 290 289 289 290 293 295 293 292 290 288 287 285 285 286 285 283 282 280 278 276 274 273 272 272 272 272 272 271 270 271 271 272 272 274
290 289 289 288 286 287 287 287 289 290 290 291 292 294 295 295 294 292 291 289 287 288 289 286 285 284 283 281 277 273 271 272 273 272 271 271 270 269 269 270 270 272 273
291 290 289 289 288 287 288 289 290 291 291 292 294 295 297 297 295 293 292 290 290 290 290 288 288 286 284 282 277 274 273 273 273 273 272 272 270 268 268 268 268 270 272
293 292 291 291 290 290 290 292 292 292 293 294 295 296 298 297 296 296 293 291 291 291 291 291 290 288 287 284 279 276 275 275 274 272 273 273 271 269 268 268 268 269 272
294 294 293 292 292 292 292 292 291 292 294 295 296 297 297 297 296 298 296 294 294 293 292 293 291 290 289 288 285 280 276 276 276 275 274 274 273 271 270 268 266 267 269
295 295 293 293 293 292 293 293 291 292 294 296 297 300 297 297 298 297 296 296 296 296 295 295 295 292 292 291 289 285 282 279 277 276 276 275 274 272 269 267 266 265 266
295 295 296 293 292 292 293 293 292 292 294 297 298 299 299 299 299 298 296 296 297 298 299 299 298 296 295 294 292 289 286 283 277 275 275 274 274 272 270 268 265 263 264
296 296 297 295 293 292 292 292 292 291 294 297 298 300 301 302 301 300 299 299 299 299 301 301 300 299 298 297 295 292 288 284 281 279 276 274 272 273 270 266 262 260 262
298 297 297 295 294 294 294 293 293 294 298 300 300 302 303 304 305 304 304 304 303 303 304 302 301 301 301 300 298 294 289 288 286 284 281 280 278 275 271 265 259 258 258
298 300 300 297 296 294 293 295 297 299 302 304 305 305 306 307 307 305 304 306 309 308 307 306 304 304 303 302 301 294 292 292 290 288 284 283 282 278 274 269 260 258 255
302 302 301 299 296 295 294 296 301 304 306 307 307 307 308 309 309 308 309 311 314 315 312 309 308 310 308 305 302 298 298 299 298 290 284 283 280 275 276 271 262 253 246
304 306 305 301 297 297 299 299 303 307 310 311 311 312 312 313 313 314 317 322 324 325 324 320 317 318 316 313 310 309 302 302 303 305 300 290 284 275 272 253 242 234 224
306 306 307 306 304 303 301 302 304 308 313 315 316 318 319 320 321 323 328 330 330 331 332 330 330 331 330 331 331 328 327 326 328 331 327 313 289 263 250 229 214 200 202
306 307 308 308 308 309 304 306 309 310 313 318 322 324 324 326 330 334 336 338 339 337 341 344 345 343 342 342 349 352 348 347 346 342 345 360 53 189 188 170 165 164 162
306 305 308 311 310 310 310 311 312 310 316 324 330 332 337 339 341 346 350 353 355 354 356 3 7 13 17 13 11 8 4 4 359 355 5 52 100 125 140 145 145 152 152
314 311 313 315 311 310 308 305 309 315 322 326 333 338 347 353 356 1 3 6 10 16 18 16 18 27 29 28 34 40 44 48 56 65 80 101 110 110 112 122 126 125 130
324 320 321 324 322 321 321 316 314 323 335 345 351 352 355 3 10 13 16 17 19 23 28 25 26 31 34 39 51 54 57 63 73 79 86 101 108 109 108 105 103 99 97
342 345 342 344 341 338 338 343 349 347 349 1 7 9 14 19 24 28 28 28 29 32 33 35 40 46 53 56 61 67 69 72 75 81 87 91 96 101 107 102 94 88 83
5 10 10 8 2 0 2 6 18 19 22 22 26 31 31 33 33 36 41 45 45 43 45 47 53 59 63 62 69 72 76 77 79 85 87 89 93 94 96 93 90 86 82
19 20 22 25 29 36 46 47 43 37 37 41 41 37 35 38 37 39 46 50 51 54 55 59 61 65 65 64 71 78 82 83 85 90 93 95 94 92 88 84 85 83 76
Height
5858 5857 5856 5856 5855 5855 5854 5853 5852 5851 5849 5848 5847 5846 5845 5845 5844 5843 5842 5841 5840 5840 5839 5839 5838 5838 5838 5837 5837 5837 5837 5837 5837 5838 5838 5839 5839 5840 5840 5840 5840 5841 5841
5853 5852 5851 5852 5852 5851 5850 5849 5848 5847 5845 5844 5843 5841 5841 5840 5839 5838 5836 5835 5834 5833 5832 5832 5832 5831 5831 5830 5830 5830 5830 5830 5830 5831 5831 5832 5833 5833 5833 5833 5834 5834 5834
5849 5848 5848 5848 5848 5847 5846 5844 5843 5842 5840 5839 5838 5837 5835 5834 5833 5832 5830 5829 5828 5827 5826 5825 5824 5824 5824 5823 5823 5823 5823 5823 5823 5823 5824 5824 5825 5826 5826 5826 5827 5827 5827
5845 5844 5844 5844 5843 5842 5841 5839 5838 5836 5835 5834 5833 5831 5830 5829 5827 5826 5824 5823 5821 5820 5819 5818 5817 5816 5816 5815 5815 5814 5814 5815 5815 5815 5815 5816 5817 5818 5819 5819 5819 5820 5820
5841 5840 5839 5839 5838 5838 5836 5834 5833 5831 5830 5829 5827 5826 5824 5822 5820 5819 5817 5816 5814 5813 5811 5810 5809 5808 5807 5807 5806 5806 5806 5806 5807 5807 5808 5808 5808 5809 5810 5811 5812 5812 5813
5836 5835 5835 5834 5833 5832 5831 5829 5828 5826 5825 5823 5822 5820 5817 5815 5813 5812 5810 5808 5807 5805 5803 5801 5800 5800 5799 5798 5797 5797 5797 5798 5798 5798 5799 5800 5800 5801 5802 5803 5804 5805 5806
5832 5831 5830 5829 5828 5827 5826 5824 5823 5821 5820 5818 5816 5813 5811 5809 5806 5804 5802 5801 5799 5797 5795 5794 5793 5791 5790 5789 5788 5788 5788 5789 5789 5790 5790 5791 5792 5793 5794 5795 5796 5797 5798
5828 5827 5825 5824 5823 5822 5820 5819 5818 5816 5814 5812 5810 5807 5805 5802 5800 5797 5795 5794 5792 5790 5788 5786 5785 5784 5782 5781 5780 5780 5780 5781 5781 5781 5782 5783 5783 5784 5785 5787 5788 5789 5791
5825 5823 5822 5820 5819 5817 5815 5813 5812 5810 5808 5806 5803 5801 5798 5796 5793 5791 5789 5787 5785 5783 5781 5779 5778 5776 5774 5773 5772 5772 5772 5772 5773 5773 5774 5774 5775 5776 5777 5778 5780 5781 5782
5820 5819 5817 5816 5814 5812 5810 5808 5806 5804 5802 5800 5798 5795 5793 5790 5788 5785 5783 5781 5779 5777 5775 5773 5771 5769 5768 5766 5765 5765 5764 5765 5765 5765 5765 5766 5766 5767 5769 5770 5771 5773 5774
5816 5815 5813 5811 5808 5806 5804 5802 5801 5799 5797 5794 5792 5789 5787 5784 5782 5780 5778 5775 5773 5771 5769 5767 5765 5763 5761 5760 5758 5757 5757 5757 5757 5758 5758 5758 5759 5759 5760 5762 5763 5765 5767
5812 5810 5808 5805 5803 5801 5799 5797 5795 5793 5791 5789 5787 5784 5781 5779 5777 5774 5772 5770 5768 5766 5763 5761 5759 5757 5755 5754 5753 5752 5751 5750 5750 5750 5750 5751 5751 5752 5753 5754 5756 5758 5760
5807 5805 5802 5800 5798 5796 5794 5792 5790 5788 5786 5784 5782 5779 5776 5774 5771 5769 5766 5764 5762 5760 5758 5756 5753 5752 5750 5748 5747 5746 5745 5744 5744 5744 5744 5744 5745 5745 5746 5748 5749 5751 5753
5802 5799 5797 5795 5793 5791 5789 5787 5785 5783 5781 5779 5777 5774 5772 5769 5767 5764 5762 5760 5757 5755 5753 5751 5749 5747 5745 5744 5742 5740 5740 5739 5739 5739 5739 5739 5740 5740 5741 5742 5744 5746 5748
5797 5794 5792 5790 5788 5786 5784 5782 5780 5778 5776 5774 5772 5769 5767 5765 5762 5760 5758 5756 5753 5751 5749 5746 5745 5743 5741 5739 5738 5736 5736 5735 5734 5734 5734 5735 5735 5736 5736 5738 5739 5742 5743
5793 5790 5788 5785 5783 5781 5779 5777 5775 5773 5771 5769 5767 5765 5763 5761 5758 5756 5754 5752 5749 5747 5745 5743 5741 5739 5737 5735 5734 5733 5732 5731 5731 5731 5731 5732 5732 5732 5733 5734 5736 5738 5740
5788 5786 5783 5781 5779 5777 5775 5773 5771 5769 5767 5766 5763 5761 5759 5757 5755 5753 5751 5749 5746 5744 5741 5740 5738 5736 5734 5733 5731 5731 5730 5729 5729 5729 5729 5730 5730 5730 5731 5732 5733 5735 5737
5784 5781 5779 5777 5775 5773 5771 5770 5768 5766 5764 5762 5760 5759 5757 5755 5752 5750 5748 5746 5744 5742 5739 5737 5736 5734 5732 5731 5730 5729 5729 5728 5728 5728 5728 5728 5728 5729 5729 5730 5732 5733 5735
5780 5777 5775 5773 5771 5770 5768 5766 5765 5763 5761 5760 5758 5756 5755 5753 5751 5749 5747 5745 5742 5740 5738 5736 5734 5733 5731 5730 5729 5728 5728 5728 5728 5728 5728 5728 5728 5728 5729 5730 5731 5733 5734
5776 5774 5772 5770 5768 5767 5765 5764 5762 5761 5760 5758 5757 5755 5753 5751 5750 5748 5746 5744 5742 5740 5738 5736 5734 5732 5731 5730 5729 5728 5728 5728 5728 5728 5728 5728 5728 5729 5729 5731 5732 5733 5735
5772 5770 5769 5767 5766 5764 5763 5761 5760 5759 5758 5757 5755 5754 5752 5751 5749 5747 5745 5744 5742 5740 5738 5736 5735 5733 5732 5731 5730 5729 5729 5729 5729 5729 5729 5729 5729 5730 5731 5732 5733 5734 5735
5769 5767 5766 5765 5764 5762 5761 5760 5759 5758 5757 5756 5755 5754 5752 5751 5749 5747 5746 5744 5742 5741 5739 5738 5736 5735 5734 5732 5731 5730 5730 5730 5730 5730 5730 5730 5731 5731 5732 5733 5734 5735 5736
5767 5766 5764 5763 5762 5761 5760 5759 5758 5757 5757 5756 5755 5753 5752 5751 5749 5748 5746 5745 5743 5742 5740 5739 5738 5736 5735 5734 5733 5732 5732 5732 5732 5732 5732 5733 5733 5734 5735 5736 5736 5737 5737
5767 5765 5764 5763 5762 5760 5759 5759 5758 5757 5756 5756 5755 5754 5753 5751 5750 5749 5747 5746 5745 5743 5742 5740 5739 5738 5737 5736 5736 5735 5735 5735 5735 5735 5735 5736 5736 5737 5737 5738 5738 5739 5740
5767 5765 5764 5763 5762 5761 5760 5759 5758 5758 5757 5756 5756 5755 5753 5752 5751 5750 5748 5747 5746 5745 5743 5742 5741 5740 5740 5739 5738 5738 5738 5738 5738 5738 5739 5739 5740 5740 5740 5741 5741 5742 5742
5767 5766 5765 5764 5763 5762 5761 5760 5759 5759 5758 5758 5757 5756 5755 5754 5753 5751 5750 5749 5748 5746 5745 5744 5743 5743 5743 5742 5741 5741 5741 5742 5742 5742 5742 5743 5743 5743 5743 5743 5744 5744 5744